Weather History for KMMK - April, 2013

Change the Weather History Date:

Wednesday, April 3, 2013

  Actual Average (KBDR) Record (KBDR)
Temperature  
Mean Temperature 38 °F 45 °F  
Max Temperature 46 °F 53 °F 75 °F (1967)
Min Temperature 30 °F 37 °F 20 °F (1954)
Degree Days  
Heating Degree Days 27 20  
Month to date heating degree days 61  
Since 1 July heating degree days 4745  
Cooling Degree Days 0 0  
Month to date cooling degree days 0  
Year to date cooling degree days 0  
Moisture  
Dew Point 11 °F    
Average Humidity 35    
Maximum Humidity 49    
Minimum Humidity 22    
Precipitation  
Precipitation 0.00 in 0.15 in 1.57 in (1990)
Month to date precipitation 0.43  
Year to date precipitation 10.37  
Snow  
Snow 0.00 in 0.10 in 0.50 in (1955)
Month to date snowfall 0.2  
Since 1 July snowfall 26.9  
Snow Depth -    
Sea Level Pressure  
Sea Level Pressure 30.10 in    
Wind  
Wind Speed 8 mph (WNW)    
Max Wind Speed 17 mph    
Max Gust Speed 28 mph    
Visibility 10 miles    
Events      
T = Trace of Precipitation, MM = Missing Value Source: NWS Daily Summary

Daily Weather History Graph

Daily Weather History Graph

Search for Another Location

Airport or City:

Trip Planner

Search our weather history database for the weather conditions in past years. The results will help you decide how hot, cold, wet, or windy it might be!

Date:

Astronomy

Apr. 03, 2013 Rise Set
Actual Time 6:30 AM EDT 7:19 PM EDT
Civil Twilight 6:02 AM EDT 7:47 PM EDT
Nautical Twilight 5:29 AM EDT 8:20 PM EDT
Astronomical Twilight 4:54 AM EDT 8:55 PM EDT
Moon 2:13 AM EDT 12:23 PM EDT
Length of Visible Light 13h 44m
Length of Day
12h 48m
Last Quarter, 45% of the Moon is Illuminated
Apr 3
Last Quarter
Apr 10
New
Apr 18
First Quarter
Apr 25
Full
May 2
Last Quarter

Hourly Weather History & Observations

Time (EDT) Temp. Windchill Dew Point Humidity Pressure Visibility Wind Dir Wind Speed Gust Speed Precip Events Conditions
12:53 AM 33.1 °F 27.7 °F 8.1 °F 35% 30.04 in 10.0 mi West 5.8 mph - N/A   Clear
1:53 AM 30.9 °F 27.5 °F 10.9 °F 43% 30.05 in 10.0 mi West 3.5 mph - N/A   Partly Cloudy
2:53 AM 32.0 °F 26.4 °F 10.9 °F 42% 30.04 in 10.0 mi NW 5.8 mph - N/A   Clear
3:53 AM 32.0 °F 24.8 °F 12.0 °F 44% 30.04 in 10.0 mi West 8.1 mph - N/A   Clear
4:53 AM 30.9 °F 27.5 °F 12.0 °F 46% 30.05 in 10.0 mi West 3.5 mph - N/A   Clear
5:53 AM 30.0 °F 26.5 °F 12.0 °F 47% 30.06 in 10.0 mi WSW 3.5 mph - N/A   Clear
6:53 AM 30.0 °F 26.5 °F 12.9 °F 49% 30.09 in 10.0 mi West 3.5 mph - N/A   Clear
7:53 AM 33.1 °F 30.0 °F 12.9 °F 43% 30.11 in 10.0 mi Variable 3.5 mph - N/A   Clear
8:53 AM 35.1 °F 25.9 °F 12.9 °F 40% 30.10 in 10.0 mi West 13.8 mph 19.6 mph N/A   Clear
9:53 AM 35.1 °F 27.4 °F 12.0 °F 39% 30.11 in 10.0 mi West 10.4 mph 19.6 mph N/A   Mostly Cloudy
10:53 AM 39.0 °F 31.0 °F 12.0 °F 33% 30.09 in 10.0 mi WNW 13.8 mph 19.6 mph N/A   Partly Cloudy
11:53 AM 39.9 °F 31.1 °F 10.9 °F 31% 30.09 in 10.0 mi NW 17.3 mph 25.3 mph N/A   Partly Cloudy
12:53 PM 42.1 °F 35.2 °F 10.0 °F 27% 30.08 in 10.0 mi NW 12.7 mph 23.0 mph N/A   Clear
1:53 PM 44.1 °F 37.4 °F 10.9 °F 26% 30.07 in 10.0 mi NW 13.8 mph 21.9 mph N/A   Partly Cloudy
2:53 PM 45.0 °F 39.3 °F 10.0 °F 24% 30.05 in 10.0 mi WNW 11.5 mph 23.0 mph N/A   Clear
3:53 PM 46.0 °F 39.9 °F 9.0 °F 22% 30.05 in 10.0 mi NW 13.8 mph 27.6 mph N/A   Partly Cloudy
4:53 PM 45.0 °F 38.5 °F 8.1 °F 22% 30.06 in 10.0 mi WNW 13.8 mph 26.5 mph N/A   Partly Cloudy
5:53 PM 44.1 °F 37.4 °F 10.0 °F 25% 30.09 in 10.0 mi WNW 13.8 mph 20.7 mph N/A   Clear
6:53 PM 42.1 °F 34.9 °F 10.0 °F 27% 30.12 in 10.0 mi NW 13.8 mph 23.0 mph N/A   Clear
7:53 PM 39.0 °F 30.6 °F 10.9 °F 32% 30.16 in 10.0 mi NW 15.0 mph 23.0 mph N/A   Clear
8:53 PM 37.0 °F 29.3 °F 10.9 °F 34% 30.20 in 10.0 mi NW 11.5 mph - N/A   Clear
9:53 PM 36.0 °F 28.0 °F 12.0 °F 37% 30.24 in 10.0 mi NW 11.5 mph 19.6 mph N/A   Clear
10:53 PM 35.1 °F 28.6 °F 12.0 °F 39% 30.26 in 10.0 mi NNW 8.1 mph - N/A   Clear
11:53 PM 34.0 °F 26.6 °F 12.0 °F 40% 30.27 in 10.0 mi NW 9.2 mph - N/A   Clear